Starlink 30496

operational
NORAD ID: 57919 Int'l Des: 2023-147 Owner: SPXS Country: US Constellation: starlink
LEOCIRCULAR

Starlink 30496について

説明を読み込み中...

リアルタイム位置

3D地球を読み込み中...

次回通過

高度履歴

Altitude vs Time

uPlot chart will show altitude changes over time

軌道要素

1 57919U 23147G 25354.16798419 -.00000323 00000-0 -88238-5 0 9996
2 57919 43.0020 38.3410 0001463 277.7019 82.3657 15.02538986124654
Epoch: Dec 20, 2025 • Age: 21 hours

現在のステータス

高度 562.8 km
速度 7.58 km/s
衛星直下点 -19.84°S, 88.42°W
打ち上げ日 Sep 24, 2023
運用期間 2.2 years
タイプ internet

技術仕様

分類 Payload
質量 730.00 kg
乾燥質量 700.00 kg
総質量 730.00 kg
長さ 0.30 m
直径 4.10 m
スパン 29.00 m
形状 Box + pan
製造者 SPXS
バスタイプ Starlink V2M
フェーズステータス In Orbit
所有者/国 SPXS/US

大規模コンステレーション

Loading constellations...